GFSNW_prec_radar_102.txt.gz
Reflectivity
-20 -20 -20 -20 -20 -20 -20 -20 -20 -20 -20 2 8 6 1 -15 -20 -20 14 3 16 15 13 19 37 9 12 -20 -20 -20 -20 11 9 12 -20 -20 -19 -20 -20 -1 1 -7 -5 -20
-20 -20 -20 -20 -20 -20 -20 -20 -20 -20 -2 4 -1 6 5 4 -20 -13 -2 16 25 18 25 23 24 0 -17 -20 -20 15 9 6 9 20 -11 1 7 2 -1 -14 -2 6 1 -1
-20 -20 -20 -14 -20 -20 -20 -20 -20 -20 -0 -20 2 2 4 -7 -15 -20 1 30 31 31 38 36 29 24 17 -3 -20 -20 -20 -20 -5 14 -8 -20 6 4 4 6 5 0 -15 -20
-20 -20 -20 -20 -20 -20 -20 -20 -20 -20 -20 -20 -20 -14 -15 -20 -3 19 21 26 24 26 22 31 30 31 8 5 -17 -8 -20 -20 -20 -20 -20 -20 -20 -20 -20 -20 -20 -20 -20 -20
-20 -20 -20 -20 -20 -20 -20 6 -20 -20 -20 -20 -20 -20 -20 -20 14 6 -19 8 17 21 17 15 16 34 29 29 24 17 21 -12 -20 -20 -20 -20 -20 -20 -20 -20 -20 -20 -20 6
-20 -20 -20 -11 -13 -20 -20 -20 -20 -20 -20 -20 -20 -20 -20 -20 -20 -20 -20 -3 -10 -20 -8 5 5 13 10 -6 -0 6 12 15 -18 -18 -20 -20 -20 -20 -20 -20 -20 1 1 1
-20 -20 -20 6 9 -14 -20 -20 -20 -13 -19 -20 -20 -20 -20 -20 -20 -20 -20 -20 -20 -20 3 -20 -20 -20 11 -13 -16 -17 -20 -20 -20 -20 -20 -20 -20 -20 -20 -20 3 7 6 -4
-20 -14 -20 10 -6 -17 -20 -20 -20 -15 3 -20 -20 -20 -20 -20 -20 -20 -20 -20 -20 -20 -20 -20 -20 -20 -18 -18 -20 -20 -20 -20 -20 -20 -20 -20 8 -20 -20 -20 -15 -17 2 25
-20 -8 -20 10 -20 19 1 -20 -20 -20 8 -20 -20 -20 -20 -20 -20 -20 -20 -20 -20 -20 -20 -20 -20 -20 -20 -20 -18 -20 -20 -20 -20 -20 -20 -20 -20 -20 -20 -20 4 -4 -20 2
-20 6 -20 9 -20 18 -6 11 -17 -2 10 -20 -20 -20 -20 -15 -9 -20 -13 -20 -20 -20 -20 -5 -4 -12 -20 2 -11 2 -5 3 2 -20 -20 -14 -20 -20 -20 -3 -12 2 -4 -19
-10 -13 -20 -20 -20 17 -9 -12 -19 2 6 -3 -20 -20 -20 -20 -20 -20 -20 -3 -6 -19 1 0 6 10 11 13 12 17 11 16 11 1 0 10 -17 -20 -7 7 -1 5 1 -1
-18 -17 -8 -20 -20 8 24 11 -11 -10 -1 -3 -20 -20 -20 -20 -20 -20 -20 -12 9 8 7 -7 2 -10 5 -12 13 -3 18 2 11 -19 2 20 7 3 -1 -12 -5 12 4 4
-9 -12 -19 -20 0 14 13 16 17 14 -1 -8 -3 -20 -20 -20 -20 -20 -20 -20 -12 5 4 -9 -10 18 4 6 12 16 -9 -20 0 19 0 2 6 4 2 -14 -18 -17 -7 -7
-20 -20 -1 -20 -4 -20 21 9 7 21 20 0 -20 -20 -20 -20 -20 -20 -20 -20 10 12 3 2 6 8 -1 -7 6 7 -16 -10 -20 8 9 -3 -12 4 2 -3 -11 -20 -20 -18
-17 -20 -14 -7 -1 3 20 -4 14 8 9 12 -20 -20 -20 -20 -20 -20 -20 -20 -20 -20 -8 15 -8 2 4 9 0 2 -20 -20 -11 -3 3 -13 5 3 -2 -20 -20 -20 -20 -20
-20 -18 2 15 23 23 34 26 21 20 21 29 2 -20 -20 -20 -20 -20 -20 -20 -20 -6 10 9 8 1 5 11 8 -3 -8 -13 -20 -1 -0 -20 1 5 -2 -13 -6 -20 -20 -20
-20 -17 -2 15 18 31 21 19 -20 -0 16 25 9 4 -20 -20 -20 -20 -16 -20 8 19 16 -15 5 5 7 7 4 -1 -17 -10 -17 -2 3 -3 -20 -17 -6 -18 -20 -20 -20 -20
-20 -16 -0 22 31 30 22 18 -10 8 11 17 13 0 1 -20 7 4 -20 -13 -4 2 7 -2 9 12 -18 -0 -20 -20 -13 -20 -20 -12 -20 -12 -8 -14 -20 -20 -20 -20 -20 -20
-20 -17 26 28 36 36 5 5 -20 3 20 24 -20 2 14 -1 -3 -9 -19 8 8 10 9 6 13 6 8 -20 -20 -20 -20 -20 -20 -15 -16 -15 4 3 -20 -20 -20 -20 -20 -20
-1 26 35 22 17 17 21 34 35 27 20 22 3 -20 -3 -12 -12 11 -19 11 13 9 -2 -6 11 5 -20 -20 -20 -20 -20 -20 -20 -20 -20 -20 -20 -20 -20 -20 -20 -20 -20 -20
25 29 18 10 24 12 25 11 6 -1 -12 8 -20 -20 1 -20 -9 -14 -2 3 6 6 9 5 7 2 -3 -16 -20 -20 -20 -20 -20 -20 -20 -20 -20 -20 -20 -20 -20 -20 -20 -20
-4 -0 14 34 32 29 8 5 13 4 -12 0 2 -17 5 9 -3 19 -11 6 -15 -8 -13 13 9 -20 -20 -20 -20 -20 -20 -20 -20 -20 -20 -20 -20 -20 -20 -20 -20 -20 -20 -20
26 35 35 31 19 14 -3 3 -0 -2 4 2 -0 7 2 -20 5 -17 -4 -1 1 -1 15 7 -19 -9 -7 -20 -20 -20 -20 -20 -20 -20 -20 -20 -20 -20 -20 -20 -20 -20 -20 -20
26 27 15 -2 19 -20 -20 -20 -20 -20 -20 -6 2 8 -18 -14 -9 -19 18 -15 -7 11 7 -20 -19 -4 -6 -20 -20 -20 -20 -20 -20 -20 -20 -20 -20 -20 -20 -20 -20 -20 -20 -20
27 19 -0 -20 -20 -20 -14 -11 -8 -11 -2 2 2 -17 -11 -20 -8 -9 -20 -14 -5 -19 -20 -20 -3 -2 -9 -20 -20 -20 -20 -20 -20 -20 -20 -20 -20 -20 -20 -20 -20 -20 -20 -20
2 -14 -9 -9 -4 -3 -10 0 -8 -11 -9 8 -11 -20 -14 -20 -14 -11 -13 -20 -20 -20 -20 -20 -10 -20 -20 -20 -20 -20 -20 -20 -20 -20 -20 -20 -20 -20 -20 -20 -20 -20 -20 -20
18 -2 -20 -9 -3 2 -20 -19 -20 -11 11 5 -20 -20 -18 -19 -20 -20 -20 -20 -20 -20 -7 -20 -20 -20 -20 -20 -20 -20 -20 -20 -20 -20 -20 -20 -20 -20 -20 -20 -20 -20 -20 -20

GFSNW_prec_radar_105.txt.gz
Reflectivity
-20 -20 -20 -20 -20 -20 -20 -20 -12 -20 -20 15 -8 2 -20 -20 -20 -20 -17 6 7 19 22 14 13 28 -19 -15 -16 -20 11 21 18 10 3 11 -20 -15 -20 3 -16 -20 -19 15
-20 -20 -20 -20 -20 -20 -20 -20 -20 -20 -20 4 3 -16 -20 -20 -20 -12 -14 25 33 21 26 29 34 25 -20 -20 8 6 -20 -4 19 3 -9 -10 24 3 -8 -10 4 -18 -4 15
-20 -20 -20 -20 -20 -20 -20 -11 0 -16 -20 -20 1 -14 -4 -20 -20 -1 -11 4 28 13 29 36 27 22 1 1 -16 8 -18 15 22 13 4 -12 13 -2 -20 -7 3 7 -19 4
-20 -20 -20 -20 -20 -20 -20 -3 -17 -20 2 -1 -20 -20 -20 -20 -20 -20 -18 -5 7 22 23 18 22 25 -1 -20 -20 -20 14 25 12 21 20 -19 18 -13 22 21 -20 -20 10 -20
-20 -20 -20 -20 -15 -20 -20 -20 -12 -20 -20 -20 -20 -20 -20 -20 -20 -10 -20 -16 -6 11 13 17 7 17 27 29 -7 -20 -20 -17 -20 -10 -14 -16 -20 -20 -20 -20 -20 -20 -20 25
-20 -20 -20 -20 -20 -20 -3 -20 -20 -20 -19 -20 -20 -20 -20 -20 -20 -20 -20 -9 -20 3 -14 -1 3 -12 -4 -9 7 29 -3 -19 -5 -1 -14 2 3 -20 -20 -20 -19 0 14 24
-20 -20 -20 -20 -20 -20 -11 -20 -20 -1 6 -20 -20 -20 -20 -20 -20 -20 -20 -20 -20 -20 2 -12 1 -14 -5 6 8 4 10 17 9 -11 -8 -12 -8 -20 -20 5 -20 -16 1 3
-20 -20 -20 -20 -20 -20 -16 -20 -19 -1 4 -20 -20 -20 -20 -20 -20 -20 -20 -20 -20 -20 -16 7 12 12 -13 -0 -5 -8 -12 -10 -20 -20 -20 -20 8 -0 -12 4 5 -20 -1 3
-20 -20 -20 -20 -20 -1 -20 4 -19 -18 -18 -11 -20 -20 -20 -20 -20 -20 -20 -20 -20 -20 -20 -20 5 2 3 3 -18 -20 -20 -20 -20 -20 -20 9 16 3 -20 -20 11 -1 -20 -20
-20 -20 -20 -20 -20 -14 1 -20 -19 3 13 -8 -20 5 -9 -20 -20 -20 -20 -20 -20 -20 -1 19 7 9 -20 7 4 4 -13 -12 5 -12 3 3 -19 -20 -20 13 14 2 -3 -18
-20 -20 -20 -20 -20 -1 13 12 2 10 12 -7 -4 4 4 -7 1 -5 -20 -5 -11 -18 -4 -1 -1 14 1 18 -10 6 9 9 10 11 4 17 -19 -20 -17 7 3 5 -1 0
2 -20 -20 -20 -20 -7 12 15 -18 -20 15 -7 -20 -20 -20 -20 -19 6 -20 2 12 7 9 -0 0 22 8 -14 25 -3 15 2 12 -2 2 6 4 2 4 2 -1 1 3 0
-19 -20 -20 -20 -20 2 -19 21 11 0 6 -2 -18 8 -20 -20 -20 -20 4 -15 11 15 11 -3 7 19 1 8 3 17 -20 -18 -2 -14 5 3 -2 -16 1 -13 -4 -7 -6 -8
9 -20 -20 -20 -20 5 12 -3 7 15 8 13 13 -20 -20 -20 -20 -20 -20 -9 -10 14 -19 3 6 20 -15 9 8 3 -4 -14 -11 1 1 -5 -20 -8 -0 -4 -20 -20 -20 -20
2 -20 -20 -2 -2 -8 8 20 -5 -20 2 20 19 -20 -20 -20 -20 -20 -20 -20 -20 -20 4 16 22 11 -3 17 5 -20 -19 -20 -7 3 3 -4 -5 -14 -13 -20 -20 -20 -20 -20
1 -20 -20 9 -3 10 -9 26 6 -2 18 36 20 -19 -20 -20 -20 -20 -20 -5 -12 -20 2 5 18 -18 10 20 18 -20 -16 -20 -20 3 -20 -20 -1 -6 -8 -20 -20 -20 -20 -20
-20 -20 -20 -20 11 20 19 15 3 3 11 26 -3 20 -20 -20 -20 -19 -1 -20 2 10 -16 16 10 17 6 16 8 -17 -20 -20 -20 -20 -12 -5 -1 -10 -10 -20 -20 -20 -20 -20
-20 -20 -20 12 28 31 22 23 -11 10 20 -4 15 16 -9 -15 9 3 -10 -2 -5 2 11 7 -8 19 -3 -2 -20 -20 -6 -20 -20 -20 -20 -20 -20 -15 -17 -20 -20 -20 -20 -20
-20 -14 9 22 27 28 31 15 1 -3 1 10 -2 15 19 1 -0 -5 4 -7 14 11 12 -14 16 13 14 -17 -20 -20 -20 -20 -20 -20 -20 -20 -20 -20 -9 -18 -20 -20 -20 -20
-19 18 25 24 14 28 23 37 23 21 31 11 1 13 -19 -12 -20 11 6 4 17 19 -2 -9 9 9 -20 -20 -20 -20 -20 -20 -20 -20 -20 -20 -20 -20 -20 -20 -20 -20 -20 -20
16 26 23 20 22 22 33 9 23 8 1 5 -6 -13 13 5 11 19 13 15 16 5 15 4 -3 2 -15 -20 -20 -20 -20 -20 -20 -20 -20 -20 -20 -20 -20 -20 -20 -20 -20 -20
-11 17 25 31 35 25 7 15 18 4 -13 -11 -14 -10 13 1 13 18 18 14 5 9 17 14 9 -4 -20 -20 -20 -20 -20 -20 -20 -20 -20 -20 -20 -20 -20 -20 -20 -20 -20 -20
26 26 24 33 9 13 2 12 -1 -3 -3 -9 -10 4 9 12 11 -9 -1 -7 12 14 12 17 -3 -20 -20 -20 -20 -20 -20 -20 -20 -20 -20 -20 -20 -20 -20 -20 -20 -20 -20 -20
4 16 12 13 7 2 -0 -20 -17 0 -20 -20 1 -9 8 -19 -9 15 8 17 3 12 13 7 -20 -20 -20 -20 -20 -20 -20 -20 -20 -20 -20 -20 -20 -20 -20 -20 -20 -20 -20 -20
19 21 19 -9 -2 -12 -20 -14 -20 -13 -14 5 4 0 -14 -4 -4 -20 5 8 8 -12 10 -10 -20 -10 -20 -20 -20 -20 -20 -20 -20 -20 -20 -20 -20 -20 -20 -20 -20 -20 -20 -20
8 10 -1 -20 -3 -10 8 3 2 2 10 9 4 11 2 -9 7 -1 -1 12 13 1 -4 -20 -16 -13 -3 -17 -20 -20 -20 -20 -20 -20 -20 -20 -20 -9 -4 -18 -20 -20 -20 -20
15 14 -5 -18 14 9 9 10 -20 -20 21 -11 16 1 -1 -18 1 -3 10 -2 -10 -6 -2 -4 -19 -3 -8 -20 -20 -20 -20 -20 -20 -4 -4 -4 -1 -20 -4 -13 -2 -1 -20 -20

GFSNW_prec_radar_111.txt.gz
Reflectivity
-6 4 10 5 -18 -20 -20 -20 -16 -20 -20 -20 -20 -20 -20 -20 -20 -20 -20 -0 -8 -12 2 -13 -14 -12 41 27 -20 -17 13 34 23 30 20 24 11 22 -10 14 22 17 30 29
2 12 4 -3 -20 -20 -20 -20 -20 -20 -20 -20 -20 -20 -20 -20 -20 -20 -20 -4 8 -20 -20 -20 -20 22 9 30 2 18 17 31 -8 -19 31 27 22 14 -18 26 32 26 28 28
7 8 -0 -10 -20 -20 -20 -20 -20 -20 -20 -20 -20 -20 -20 -20 -20 -20 -20 -19 -20 -20 -20 -20 -18 -13 -20 -20 -12 -16 9 5 -0 18 21 -1 2 17 5 13 19 32 29 27
9 6 -9 -20 -20 -20 -20 -20 -20 -20 -20 -14 -20 -20 -20 -20 -20 -20 -20 -20 -20 -20 -20 -20 -20 -5 -20 -20 -20 -20 -20 -17 -2 7 22 27 32 33 35 38 -2 30 29 11
7 -14 -20 -20 -20 -20 -20 -20 -20 -20 -20 -20 -20 -20 -20 -20 -20 -20 -20 -20 -20 -20 -20 -20 -1 -13 -20 -20 -20 -18 26 11 34 21 35 6 33 14 5 16 25 29 9 3
-7 -20 -20 -20 -20 -20 -20 -20 -20 -20 -20 -20 -20 -20 -20 -20 -20 -20 -20 -20 -20 -20 -20 -20 -20 -20 -16 -20 -15 -16 -17 19 19 20 29 11 12 9 -12 -2 7 5 -2 21
-20 -20 -20 -20 -20 -20 -20 -20 -20 -20 -20 -20 -20 -20 -20 -20 -20 -20 -20 -20 -20 -20 -20 -20 -20 -20 -20 -20 -20 -20 -7 8 1 9 8 22 26 10 -5 -5 -9 -11 9 13
-20 -20 -20 -20 -20 -20 -20 -20 -20 -20 -20 -20 -20 -20 -20 -20 -20 -20 -20 -20 -20 -20 -20 -20 -20 -20 -20 -20 -20 -0 12 -3 -4 10 8 10 -10 -19 -18 1 3 4 -20 -3
-20 -20 -20 -20 -20 -20 -20 -20 -20 -20 -20 -20 -20 -20 -20 -20 -20 -20 -20 -20 -20 -20 -20 -20 -20 -20 -20 -4 -17 -20 -20 0 12 9 2 6 -20 -20 -20 -4 -6 6 -7 -16
-20 -20 -20 -20 -20 -20 -20 -20 -20 -20 -20 -19 -20 -20 -20 -20 -20 -20 -20 -20 -20 -20 -20 -20 -20 -20 -20 -6 -2 -20 -20 -20 -20 -20 -11 -20 -20 -20 -20 -20 3 15 7 0
-20 -20 -20 -20 -20 -20 -20 -20 -20 -11 -13 -20 -20 -20 -20 -20 -20 -20 -20 -20 -20 -20 -20 -20 -20 -20 1 -1 -9 -3 -20 -14 -20 -20 -20 -20 -20 -20 -17 11 6 8 4 3
-20 -20 -20 -20 -20 -20 -20 -16 -20 -20 -20 -20 -20 -20 -20 -20 -20 -20 -20 -20 4 -20 -20 -20 -19 -20 -20 -19 -16 -20 -14 -18 -20 -4 -2 3 5 6 3 -2 -3 -18 -20 -19
-20 -20 -17 -20 -20 -20 -20 -3 -20 -20 -20 -20 -20 -20 -20 -20 -20 -20 -20 -20 -20 -20 -20 -20 3 -10 -17 -8 4 3 -16 -12 -20 -20 10 -1 -0 -20 -20 -20 -20 -20 -20 -20
-10 -20 2 -20 -20 -20 -20 -20 -20 -20 -17 -20 -20 -20 -11 -20 -20 -20 -20 -20 -20 -20 -20 -20 -11 -20 -11 -7 13 -20 -20 -20 -20 2 -12 -20 -19 -20 -20 -20 -20 -20 -20 -20
13 -20 -18 -20 -20 -20 -20 -20 -20 -20 -6 -4 -20 -20 -6 -20 -20 -20 -20 -20 -20 -20 -20 -20 -20 -20 -20 -20 -1 -20 -20 -20 -20 -20 -0 -20 -20 -20 -20 -20 -20 -20 -20 -20
-20 -20 -20 -20 -20 -20 -20 -20 -20 -20 -20 -16 -20 -20 12 -20 -20 -20 -20 -20 -20 -20 -20 -20 -20 -20 -20 -20 -20 -20 -14 -11 -20 -20 -20 -20 -20 -20 -20 -20 -20 -20 -20 -20
12 -5 -20 -20 -5 -20 -20 -19 26 13 -20 -20 -16 -11 -20 -20 -20 -20 -20 -20 -20 -20 -20 -20 -20 -20 -20 -20 -20 -20 -6 1 -15 5 -20 -16 -10 -20 -20 -20 -20 -20 -20 -20
0 12 -20 -19 16 -11 -20 23 15 11 -4 4 -20 -18 -10 -20 -20 -16 -20 -20 -20 -20 -20 -20 -20 -20 -20 -20 -20 -20 -20 -20 -18 -20 -20 -20 -20 -20 -20 -20 -20 -20 -20 -20
3 -20 12 -20 -20 -6 -20 -0 12 12 -0 -4 -14 -20 -20 -20 -4 -20 -20 -20 -13 -20 -19 -20 -20 -20 -20 -20 -20 -20 -20 -20 -20 -20 -20 -20 -20 -20 -20 -20 -20 -20 -20 -20
3 -10 10 -12 -19 9 24 22 12 22 21 -15 -12 -20 -20 -20 -15 -19 -20 -11 -20 -20 -10 -20 -20 -20 -9 3 -18 -20 -20 -20 -20 -20 -20 -20 -20 -20 -20 -20 -20 -20 -20 -20
8 -12 -16 -15 10 18 31 1 11 23 -11 -20 -20 -20 -20 -20 -20 -18 -20 -20 -20 -20 -20 -20 -20 -20 -20 -20 -20 -20 -20 -20 -20 -20 -20 -20 -20 -20 -20 -20 -20 -20 -20 -20
-20 -20 29 24 20 0 16 -19 -2 -20 -20 -20 -20 -20 -20 -5 -20 -20 -20 -20 -20 -20 -20 -20 -20 -20 -20 -20 -20 -20 -20 -20 -20 -20 -20 -20 -20 -20 -20 -20 -20 -20 -20 -20
-20 20 17 12 -5 6 -17 0 -2 -20 -20 -20 -20 -16 -20 -20 -20 -20 -20 -20 -20 -20 -20 -20 -20 -20 -20 -20 -20 -20 -20 -20 -20 -20 -20 -20 -20 -20 -20 -20 -20 -20 -20 -20
-20 -6 -12 -15 -11 -20 -20 -20 -20 -20 -20 -20 -20 -20 -20 -20 -20 -20 -20 -20 -20 -20 -20 -20 -20 -20 -20 -20 -20 -20 -20 -20 -20 -20 -20 -20 -20 -20 -20 -20 -20 -20 -20 -20
-9 14 -13 -20 2 -20 -20 3 -5 -20 -20 -20 -20 -20 -20 -20 -20 -20 -20 -9 -16 -20 -8 -20 -20 -20 -20 -20 -20 -20 -20 -20 -20 -20 -20 -20 -20 -20 -20 -20 -20 -20 -20 -20
-9 -17 6 -15 -20 -20 -20 -18 24 -20 -20 -20 -20 -20 1 -20 -14 -20 -20 -9 -20 4 -20 -20 -20 -20 -20 -20 -20 -20 -20 -20 -20 -20 -20 -20 -20 -20 -20 -20 -20 -20 -20 -20
-10 -20 -7 -3 -20 3 -20 -20 24 -5 -20 -20 -20 -20 -20 -20 -19 -20 -20 -20 -20 -20 -20 -20 -20 -20 -20 -20 -20 -20 -20 -20 -20 -20 -20 -20 -20 -20 -20 -20 -20 -20 -20 -20

GFSNW_prec_radar_114.txt.gz
Reflectivity
15 17 3 -20 -20 -17 0 -0 -19 -20 -20 -20 -20 -20 -20 -20 -20 -20 -20 -20 -19 -19 -20 -20 -20 -7 7 1 -6 7 8 27 17 29 -18 24 17 -20 -20 -20 -20 7 27 22
-4 6 -19 -20 -19 6 2 1 -20 -20 -20 -20 -20 -20 -20 -20 -20 -20 -20 -20 -3 -20 -20 -20 -20 -20 -20 -20 -20 -1 -3 26 10 25 29 8 2 -14 -14 -10 33 26 30 25
-4 -11 -18 -20 -5 1 2 -18 -20 -20 -20 -20 -20 -20 -20 -20 -20 -20 -20 -20 -20 -20 -20 -10 -20 -20 -20 -20 -20 -20 -16 -16 -2 1 1 18 29 16 3 22 25 21 21 24
-20 -20 -20 -9 9 4 -10 -20 -20 -20 -20 -20 -20 -20 -20 -20 -20 -20 -20 -20 -20 -20 -20 -20 -20 -20 -20 -20 -20 -20 -20 -15 15 3 29 21 32 18 37 16 35 21 24 23
-20 -20 -17 -1 7 -8 -20 -20 -20 -20 -20 -20 -20 -20 -20 -20 -20 -20 -20 -20 -20 -20 -20 -20 -20 -20 -20 -20 -20 -20 -20 17 34 31 36 28 22 30 36 31 31 10 2 4
-20 -14 7 2 -7 -20 -20 -20 -20 -20 -20 -20 -20 -20 -20 -20 -20 -20 -20 -20 -20 -20 -20 -20 -20 -20 -20 -20 -20 -20 -20 -13 19 15 27 29 10 21 20 18 23 13 2 7
-20 -10 12 1 -17 -20 -20 -20 -20 -20 -20 -20 -20 -20 -20 -20 -20 -20 -20 -20 -20 -20 -20 -20 -20 -20 -20 -20 -12 -20 -20 -20 5 21 -7 5 24 31 2 -11 11 -7 -1 -2
-17 1 10 -3 -20 -20 -20 -20 -20 -20 -20 -20 -20 -20 -20 -20 -20 -20 -20 -20 -20 -20 -20 -20 -20 -20 -20 -20 -16 -20 -20 -20 -12 20 -6 2 7 -5 -7 1 7 18 -3 12
-14 -18 11 -7 -20 -20 -20 -20 -20 -20 -20 -20 -20 -20 -20 -20 -20 -20 -20 -20 -20 -20 -20 -20 -20 2 -20 -20 -20 -20 -20 -11 -20 12 -3 -20 -20 -20 -20 -20 2 11 -1 -18
-20 -6 -0 -20 -20 -20 -20 -20 -20 -20 -20 -20 -20 -20 -20 -20 -20 -20 -20 -20 -20 -20 -20 -20 -20 -20 -18 -3 -20 -13 -20 -16 -10 -20 -18 -20 -19 -20 -6 -20 4 3 -9 -11
-0 -0 -17 -20 -20 -20 -20 -20 -20 -20 -20 -20 -20 -20 -20 -20 -20 -20 -20 -20 -20 -20 -20 -20 -20 -20 -1 -9 -7 -13 -15 -16 -20 -20 -20 -20 -20 -20 -7 -0 5 -1 5 -9
-19 -20 -20 -20 -20 -20 -20 -20 -20 -20 -20 -20 -20 -20 -20 -20 -20 -20 -20 -20 -20 -20 -20 -12 -20 -20 -20 -20 -20 -20 -20 -20 -20 -2 -13 -1 1 10 5 -19 -20 -20 -20 -9
-20 -20 -20 -20 -20 -20 -20 -20 -20 -20 -20 -20 -20 -20 -20 -20 -20 -20 -20 -20 -20 -20 -20 -20 -12 -20 -20 -19 10 -20 0 -20 -20 -20 9 2 -1 -20 -20 -20 -20 -20 -20 -20
-20 -20 -20 -20 -20 -20 -20 -20 -20 -20 -20 -20 -20 -20 -20 -20 -20 -20 -20 -20 -20 -20 -20 -20 -14 -20 -20 -20 -20 -20 -20 -20 -20 -1 0 -20 2 -20 -20 -20 -20 -20 -20 -20
-20 -20 -20 -20 -20 -20 -20 -20 -20 -20 -20 -20 -20 -20 -20 -20 -20 -20 -20 -20 -20 -20 -20 -20 -20 -20 -20 -20 -20 -20 -20 -20 -19 -19 -20 -20 -12 -20 -20 -20 -20 -20 -20 -20
12 -19 -20 -20 -20 -20 -20 -20 -20 -20 -20 -20 -20 -20 -20 -20 -20 -20 -20 -20 -20 -20 -20 -20 -20 -20 -20 -20 -20 -20 -11 -20 -20 -20 -20 -20 -20 -20 -20 -20 -20 -20 -20 -20
-18 -20 -20 -20 -20 -20 -20 -15 13 -14 -20 -20 -20 -20 -20 -20 -20 -20 -20 -20 -20 -20 -20 -20 -20 -20 -20 -20 -20 -20 -20 -20 -20 -20 -20 -16 -20 -20 -20 -20 -20 -20 -20 -20
5 -20 -20 -4 -5 -20 -20 23 9 -6 -19 -20 -20 -20 -20 -20 -20 -20 -20 -20 -20 -20 -20 -20 -20 -20 -20 -20 -20 -20 -19 -7 -20 -20 -20 -20 -20 -20 -20 -20 -20 -20 -20 -20
10 -20 -2 -20 -20 -20 -1 6 27 -6 -13 -20 -20 -20 -20 -20 -20 -20 -20 -20 -20 -20 -20 -20 -20 -20 -20 -20 -20 -20 -20 -20 -20 -20 -20 -20 -20 -20 -20 -20 -20 -20 -20 -20
4 -20 -20 -5 0 6 18 -4 10 -19 9 -8 -11 -20 -20 -20 -20 -20 -20 -20 -20 -20 -20 -20 -20 -20 -20 -20 -20 -20 -20 -20 -20 -20 -20 -20 -20 -20 -20 -20 -20 -20 -20 -20
-20 -20 -17 -14 -3 13 -11 1 1 -0 -13 -18 -20 -20 -20 -20 -20 -20 -20 -20 -20 -20 -20 -20 -20 -20 -20 -20 -20 -20 -20 -20 -20 -20 -20 -20 -20 -20 -20 -20 -20 -20 -20 -20
-20 1 24 19 27 13 -4 -20 -20 -20 -20 -20 -20 -20 -20 -20 -20 -20 -20 -20 -20 -20 -20 -20 -20 -20 -20 -20 -20 -20 -20 -20 -20 -20 -20 -20 -20 -20 -20 -20 -20 -20 -20 -20
-8 24 -14 -13 -15 -10 -18 -18 -20 -20 -20 -20 -20 -20 -20 -20 -20 -20 -20 -20 -20 -20 -20 -20 -20 -20 -20 -20 -20 -20 -20 -20 -20 -20 -20 -20 -20 -20 -20 -20 -20 -20 -20 -20
-6 -19 -8 -20 -20 -20 -20 -20 -20 -20 -20 -20 -20 -20 4 -20 -20 -20 -20 -20 -20 -18 -20 -20 -20 -20 -20 -20 -20 -20 -20 -20 -20 -20 -20 -20 -20 -20 -20 -20 -20 -20 -20 -20
-20 -20 -20 -20 -20 -20 -20 -2 -20 -20 -20 -20 -20 -20 -20 -20 -20 -20 -20 -5 -10 -20 -20 -20 -20 -20 -20 -20 -20 -20 -20 -20 -20 -20 -20 -20 -20 -20 -20 -20 -20 -20 -20 -20
-20 -20 -20 -20 -13 -20 -20 -20 -20 -20 -4 -20 -20 -20 -20 -20 -20 -15 -20 -20 -20 -20 -20 -20 -20 -20 -20 -20 -20 -20 -20 -20 -20 -20 -20 -20 -20 -20 -20 -20 -20 -20 -20 -20
-20 -20 -20 -14 -16 -20 -20 -20 -20 -20 -17 -20 -20 -20 -20 -20 -19 -20 -20 -20 -20 -20 -20 -20 -20 -20 -20 -20 -20 -20 -20 -20 -20 -20 -20 -20 -20 -20 -20 -20 -20 -20 -20 -20